Simultaneous Nadir Overpasses (SNOs) Predictions

Prediction of SNOs between GOES-14 and NOAA-20 Satellite Orbit:

Table of predicted SNOs for the next 14.0 days since TLE Epoch: 1/24/2025
Index Date Time (GOES-14) GOES-14 Lat,Lon NOAA-20 Lat,Lon Distance(km) Time Diff (sec)
1 01/25/2025 20:41:05 -0.33,-108.00 -0.52,-109.00 113.84 80
2 01/26/2025 20:19:41 -0.32,-107.98 0.48,-104.47 400.58 80
3 01/28/2025 08:44:08 0.35,-107.99 0.76,-109.73 198.26 80
4 01/29/2025 08:22:45 0.33,-107.98 -0.31,-105.21 316.06 80
5 01/30/2025 20:47:20 -0.36,-107.92 -0.93,-110.50 294.12 80
6 01/31/2025 20:25:56 -0.35,-107.90 0.09,-105.97 220.30 80
7 02/02/2025 08:50:24 0.37,-107.92 1.09,-111.24 378.41 80
8 02/03/2025 08:28:59 0.36,-107.90 0.07,-106.71 136.08 80
9 02/04/2025 20:53:34 -0.38,-107.84 -1.34,-112.00 474.16 80
10 02/05/2025 20:32:09 -0.38,-107.82 -0.31,-107.47 40.20 80
